Miscellaneous Local Product
Issued by NWS Hastings, NE

Home | Current Version | Previous Version | Text Only | Print | Product List | Glossary Off
Versions: 1 2 3 4 5 6 7 8 9 10 11 12 13 14 15 16 17 18 19 20 21 22 23 24 25 26 27 28 29 30 31 32 33 34 35 36 37 38 39 40 41 42 43 44 45 46 47 48 49 50

883
AXUS43 KGID 120202
MISGRI

GID CWA HOURLY WEATHER ROUNDUP
NATIONAL WEATHER SERVICE HASTINGS NE
800 PM CST THU FEB 11 2016

NOTE: "FAIR" INDICATES FEW OR NO CLOUDS BELOW 12,000 FEET WITH NO
SIGNIFICANT WEATHER AND/OR OBSTRUCTIONS TO VISIBILITY.

...SOUTH CENTRAL NEBRASKA...

CITY           SKY/WX    TMP DP  RH WIND       PRES   REMARKS
GRAND ISLAND   NOT AVBL
HASTINGS       CLEAR     32  28  85 SW9       30.10F WCI  24
KEARNEY        CLOUDY    34  30  86 SW12      30.11S WCI  25
ORD            CLEAR     29  27  92 N6        30.10R WCI  23
YORK           PTCLDY    27  27 100 S8        30.14F FOG     WCI  18
AURORA         CLEAR     29  27  91 S5        30.12R WCI  24
LEXINGTON      CLOUDY    32  29  88 W3        30.12R
HOLDREGE       CLOUDY    33  30  89 SW6       30.11S WCI  28
HEBRON         PTCLDY    29  26  89 CALM      30.15S

...NEBRASKA PANHANDLE...

CITY           SKY/WX    TMP DP  RH WIND       PRES   REMARKS
CHADRON        CLOUDY    39  26  59 NW5       30.18R
ALLIANCE       CLOUDY    41  27  57 NW13      30.16R
SCOTTSBLUFF    CLOUDY    41  26  55 CALM      30.20R
SIDNEY         CLOUDY    37  29  72 NW10      30.20R WCI  30

...WESTERN AND NORTH CENTRAL NEBRASKA...

CITY           SKY/WX    TMP DP  RH WIND       PRES   REMARKS
VALENTINE      CLOUDY    31  28  89 NE10      30.16R WCI  22
AINSWORTH      CLEAR     31  28  89 N6        30.15R WCI  25
ONEILL         FOG       28  28  96 NE10      30.13R VSB 1   WCI  19
BROKEN BOW     CLOUDY    39  31  72 N14       30.11R WCI  31
IMPERIAL       CLOUDY    45  31  58 NW14      30.16R
NORTH PLATTE   CLEAR     35  27  72 N6        30.12R WCI  30
MCCOOK         CLOUDY    37  31  78 W7        30.13R WCI  32

...EASTERN NEBRASKA...

CITY           SKY/WX    TMP DP  RH WIND       PRES   REMARKS
NORFOLK        CLOUDY    26  22  84 SE9       30.14S FOG     WCI  17
SO SIOUX CITY  LGT SNOW  20  16  84 E6        30.21F FOG     WCI  12
TEKAMAH        LGT SNOW  20  18  92 E6        30.21S FOG     WCI  12
COLUMBUS       CLOUDY    28  18  64 SE6       30.16R WCI  22
ALBION         CLOUDY    30  27  87 SE7       30.10F WCI  23
OMAHA EPPLEY   CLOUDY    26  19  74 N7        30.21R WCI  18
OFFUTT AFB     CLOUDY    30  22  73 SW2       30.19F
MILLARD        CLOUDY    31  24  74 CALM      30.19F
LINCOLN        CLOUDY    29  24  82 CALM      30.19S
NEBRASKA CITY  PTCLDY    29  24  80 CALM      30.17F
BEATRICE       PTCLDY    28  25  88 CALM      30.17S
FALLS CITY     PTCLDY    31  21  66 SE6       30.19R WCI  25

...NORTHERN KANSAS...

CITY           SKY/WX    TMP DP  RH WIND       PRES   REMARKS
GOODLAND       CLOUDY    37  28  70 NW7       30.20R WCI  32
HILL CITY      CLOUDY    32  30  92 W3        30.15R
NORTON         CLEAR     34  28  80 SW8       30.12S WCI  27
PHILLIPSBURG   CLOUDY    36  32  87 CALM      30.15R
SMITH CENTER   CLEAR     28  27  93 CALM      30.16R
BELOIT         CLEAR     27  25  93 CALM      30.15F
HAYS           CLOUDY    36  25  64 NE8       30.15R WCI  29
RUSSELL        CLOUDY    33  28  81 E8        30.13S WCI  26
CONCORDIA      CLOUDY    30  25  81 S3        30.15F
SALINA         CLOUDY    35  25  66 S5        30.17F WCI  31
TOPEKA         CLOUDY    35  25  66 CALM      30.21R



USA.gov is the U.S. government's official web portal to all federal, state and local government web resources and services.